Location: Newark
(35.9031°N, 139.7175°E)
Time: 05:47:14
(UTC+00:00)

Vanguard 2 - Visible Passes

Search period start: 06 June 2020 00:00
Search period end: 16 June 2020 00:00
Orbit: 552 x 2938 km, 32.9° (Epoch: 05 June)

Date Brightness Start Highest point End Pass type
(mag) Time Alt. Az. Time Alt. Az. Time Alt. Az.
06 Jun 8.8 11:44:03 10° W 11:55:03 59° SSW 11:58:26 33° SE visible
06 Jun 10.1 13:57:39 10° W 13:59:50 15° WSW 13:59:50 15° WSW visible
07 Jun 8.8 12:02:18 10° W 12:12:44 50° SSW 12:15:12 37° SSE visible
08 Jun 9.4 10:06:51 10° W 10:21:10 74° S 10:29:38 10° ESE visible
08 Jun 9.0 12:20:37 10° W 12:30:18 39° SSW 12:31:58 36° S visible
09 Jun 9.4 10:25:07 10° W 10:39:05 68° SSW 10:47:19 10° ESE visible
09 Jun 9.4 12:39:06 10° W 12:47:44 30° SW 12:48:43 29° SSW visible
10 Jun 9.4 10:43:22 10° W 10:56:54 61° SSW 11:04:05 15° SE visible
10 Jun 9.8 12:57:54 10° W 13:05:01 22° SW 13:05:28 22° SW visible
11 Jun 9.5 11:01:40 10° W 11:14:36 51° SSW 11:20:50 19° SE visible
11 Jun 10.3 13:17:24 10° WSW 13:22:13 15° SW 13:22:15 15° SW visible
12 Jun 9.7 11:20:02 10° W 11:32:08 42° SW 11:37:37 21° SSE visible
13 Jun 9.8 11:38:35 10° W 11:49:32 33° SW 11:54:25 20° S visible
14 Jun 10.1 11:57:27 10° W 12:06:48 25° SW 12:11:13 17° S visible
15 Jun 10.4 12:16:56 10° W 12:23:56 17° SW 12:28:03 13° SSW visible
